Everett, WA

3:02 AM PST on December 06, 2019 (GMT -0800)
Snohomish County

Weather History for KPAE - July, 2019

Change the Weather History Date:

Wednesday, July 31, 2019

  Actual Average Record
Temperature  
Mean Temperature 69 °F -  
Max Temperature 79 °F 75 °F 87 °F (1996)
Min Temperature 59 °F 54 °F 45 °F (1970)
Cooling Degree Days 4    
Growing Degree Days 19 (Base 50)    
Moisture  
Dew Point 53 °F    
Average Humidity 63    
Maximum Humidity 84    
Minimum Humidity 34    
Precipitation  
Precipitation 0.00 in - - ()
Sea Level Pressure  
Sea Level Pressure 30.02 in    
Wind  
Wind Speed 4 mph (NNW)    
Max Wind Speed 8 mph    
Max Gust Speed -    
Visibility 10 miles    
Events      
Averages and records for this station are not official NWS values.
T = Trace of Precipitation, MM = Missing Value Source: NWS Daily Summary

Daily Weather History Graph

Daily Weather History Graph

Search for Another Location

Airport or City:

Astronomy

Jul. 31, 2019 Rise Set
Actual Time 5:44 AM PDT 8:45 PM PDT
Civil Twilight 5:07 AM PDT 9:22 PM PDT
Nautical Twilight 4:20 AM PDT 10:09 PM PDT
Astronomical Twilight 3:22 AM PDT 11:06 PM PDT
Moon 4:59 AM PDT (7/31) 8:52 PM PDT (7/31)
Length of Visible Light 16h 14m
Length of Day
15h 01m
Waning Crescent, 0% of the Moon is Illuminated
Jul 31
Waning Crescent
Jul 31
New
Aug 7
First Quarter
Aug 15
Full
Aug 23
Last Quarter

Hourly Weather History & Observations

Time (PDT) Temp. Dew Point Humidity Pressure Visibility Wind Dir Wind Speed Gust Speed Precip Events Conditions
12:53 AM 59.0 °F 52.0 °F 78% 30.03 in 10.0 mi North 4.6 mph - N/A   Clear
1:53 AM 60.1 °F 53.1 °F 78% 30.03 in 10.0 mi Calm Calm - N/A   Mostly Cloudy
2:53 AM 60.1 °F 52.0 °F 75% 30.03 in 10.0 mi NNE 3.5 mph - N/A   Scattered Clouds
3:53 AM 59.0 °F 52.0 °F 78% 30.03 in 10.0 mi NNE 3.5 mph - N/A   Mostly Cloudy
4:53 AM 59.0 °F 52.0 °F 78% 30.04 in 10.0 mi Calm Calm - N/A   Scattered Clouds
5:53 AM 59.0 °F 52.0 °F 78% 30.04 in 10.0 mi Calm Calm - N/A   Overcast
6:53 AM 61.0 °F 53.1 °F 75% 30.04 in 10.0 mi Calm Calm - N/A   Overcast
7:53 AM 63.0 °F 54.0 °F 72% 30.05 in 10.0 mi Calm Calm - N/A   Overcast
8:53 AM 66.9 °F 55.0 °F 66% 30.05 in 10.0 mi Calm Calm - N/A   Scattered Clouds
9:53 AM 66.9 °F 54.0 °F 63% 30.05 in 10.0 mi NW 4.6 mph - N/A   Mostly Cloudy
10:53 AM 69.1 °F 54.0 °F 58% 30.05 in 10.0 mi West 4.6 mph - N/A   Clear
11:53 AM 72.0 °F 52.0 °F 49% 30.04 in 10.0 mi West 8.1 mph - N/A   Clear
12:53 PM 73.0 °F 53.1 °F 49% 30.04 in 10.0 mi West 6.9 mph - N/A   Clear
1:53 PM 75.9 °F 52.0 °F 43% 30.02 in 10.0 mi Variable 5.8 mph - N/A   Clear
2:53 PM 75.9 °F 52.0 °F 43% 30.02 in 10.0 mi NW 8.1 mph - N/A   Clear
3:53 PM 77.0 °F 50.0 °F 39% 30.01 in 10.0 mi Variable 4.6 mph - N/A   Clear
4:53 PM 79.0 °F 48.0 °F 34% 29.99 in 10.0 mi WSW 6.9 mph - N/A   Clear
5:53 PM 78.1 °F 48.9 °F 36% 29.99 in 10.0 mi WNW 6.9 mph - N/A   Clear
6:53 PM 75.9 °F 52.0 °F 43% 29.97 in 10.0 mi North 5.8 mph - N/A   Clear
7:53 PM 71.1 °F 55.0 °F 57% 29.97 in 10.0 mi North 6.9 mph - N/A   Clear
8:53 PM 66.9 °F 55.0 °F 66% 29.98 in 10.0 mi NNE 6.9 mph - N/A   Clear
9:53 PM 63.0 °F 55.9 °F 78% 29.99 in 10.0 mi NNW 4.6 mph - N/A   Clear
10:53 PM 62.1 °F 57.0 °F 84% 29.99 in 10.0 mi North 4.6 mph - N/A   Clear
11:53 PM 61.0 °F 55.9 °F 83% 29.99 in 10.0 mi NNW 6.9 mph - N/A   Clear